Back to catalog

TO-108

AliveAmateur RadioSSO
NORAD 44881·PAYLOAD·🇨🇳 China

Launched Dec 20, 2019 from Taiyuan Satellite Launch Center

Loading…

Next Passes (next 24 hours)

TLE

FreshSource: Space-Track

Epoch: Sep 14, 2026, 21:40 UTC

1 44881U 19093C   26257.90344179  .00000935  00000-0  11117-3 0  9997
2 44881  97.7460 327.9169 0014168 146.0690 214.1435 14.86634861364744

Track TO-108 in real time with AllMySat

Download on the App Store